Location: Killam
(52.7910°N, 111.8608°W)
Time: 05:08:35
(UTC+00:00)

Gurwin Techsat 1B - Pass Details

Date: 20 March 2026
Orbit: 809 x 812 km, 99.0° (Epoch: 15 April)

Event Time Altitude Azimuth Distance (km) Brightness Sun altitude
Rises 12:10:17 0° 20° (NNE) 3,343 12.4 -12.6°
Reaches altitude 10° 12:12:45 10° 27° (NNE) 2,407 11.7 -12.3°
Maximum altitude 12:17:48 42° 98° (E) 1,146 10.0 -11.5°
Drops below altitude 10° 12:22:48 10° 169° (S) 2,390 11.0 -10.8°
Sets 12:25:15 0° 176° (S) 3,316 11.7 -10.5°
